Location: Unspecified
(48.5670°N, 0.0000°E)
Time: 07:49:06
(UTC+00:00)

Altair - Pass Details

Date: 27 August 2019
Orbit: 1501 x 1683 km, 47.2° (Epoch: 16 October)

Event Time Altitude Azimuth Distance (km) Brightness Sun altitude
Exits shadow 01:18:43 39° 154° (SSE) 2,277 8.0 -28.8°
Maximum altitude 01:19:42 40° 141° (SE) 2,245 8.1 -28.8°
Drops below altitude 10° 01:28:22 10° 77° (ENE) 3,781 10.0 -28.2°
Sets 01:31:38 0° 70° (ENE) 4,742 10.7 -28.0°
